Location: Unspecified
(43.6653°N, 0.0000°E)
Time: 14:41:38
(UTC+00:00)

CZ-6A DEB - Visible Passes

Search period start: 04 April 2026 00:00
Search period end: 14 April 2026 00:00
Orbit: 827 x 913 km, 98.9° (Epoch: 28 March)

Date Brightness Start Highest point End Pass type
(mag) Time Alt. Az. Time Alt. Az. Time Alt. Az.
4 Apr ? 05:04:42 10° NNE 05:09:56 39° E 05:15:02 10° SSE visible
5 Apr ? 04:58:30 10° NNE 05:03:35 35° E 05:08:32 10° SSE visible
6 Apr ? 04:52:19 10° NE 04:57:13 31° E 05:02:00 10° SSE visible
7 Apr ? 04:46:10 10° NE 04:50:51 27° E 04:55:25 10° SSE visible
8 Apr ? 04:40:02 10° NE 04:44:28 24° E 04:48:48 10° SE visible
9 Apr ? 04:33:57 10° NE 04:38:05 21° E 04:42:08 10° SE visible
10 Apr ? 04:27:54 10° NE 04:31:41 19° E 04:35:24 10° SE visible
11 Apr ? 04:21:55 10° NE 04:25:17 16° E 04:28:36 10° SE visible
12 Apr ? 04:16:01 10° ENE 04:18:52 14° E 04:21:41 10° ESE visible
13 Apr ? 04:10:17 10° ENE 04:12:27 12° E 04:14:36 10° ESE visible
